Flag for Brazil Weather past 2 weeks in Santa María, Rio Grande do Sul, Brazil

Now
50 °F

Fog.


Feels Like: 50 °F
Forecast: 45 / 77 °F
Wind: 2 mph from East

Location: Porto Alegre Aero-Porto

Current Time: Aug 30, 2014 at 3:56:28 AM

Latest Report: Aug 30, 2014 at 3:00 AM


Visibility: 3 mi

Pressure: 30.07 "Hg

Humidity: 100%

Dew point: 50 °F

Location of Santa MaríaLocation

Historic Weather in Santa María — Graph

°F

Santa María temperature yesterday

Maximum temperature yesterday: 70 °F (at 2:00 PM)
Minimum temperature yesterday: 45 °F (at 3:00 AM)
Average temperature yesterday: 56 °F

Past Weeks' High & Low Weather Summary

 TemperatureHumidityPressure
High95 °F (Aug 24, 3:00 PM)100% (Aug 16, 9:00 AM)30.42 "Hg (Aug 16, 9:00 AM)
Low41 °F (Aug 15, 5:00 AM)25% (Aug 24, 3:00 PM)29.62 "Hg (Aug 24, 3:00 PM)
Average62 °F78%30.06 "Hg
* Reported Aug 15 3:00 AM — Aug 30 3:00 AM, Santa María, Weather by CustomWeather, © 2014

Note: Actual official high and low records may vary slightly from our data, if they occured in-between our weather recording intervals... More about our weather records

Advertising

Santa María weather history for previous 24 hours

 ConditionsComfort  
Time TempWeatherWind HumidityBarometerVisibility
3:00 AM
Aug 30
50 °FFog.2 mph100%30.07 "Hg3 mi
2:00 AM54 °FClear.3 mph94%30.07 "Hg10 mi
1:00 AM54 °FClear.No wind94%30.09 "Hg10 mi
12:00 AM54 °FClear.5 mph94%30.09 "Hg10 mi
11:00 PM
Aug 29
57 °FClear.9 mph82%30.09 "Hg10 mi
10:00 PM57 °FClear.8 mph82%30.09 "Hg10 mi
9:00 PM57 °FClear.9 mph82%30.09 "Hg10 mi
8:00 PM59 °FClear.12 mph72%30.09 "Hg10 mi
7:00 PM61 °FClear.13 mph68%30.07 "Hg10 mi
6:00 PM64 °FClear.16 mph60%30.07 "Hg10 mi
4:00 PM70 °FSunny.10 mph40%30.07 "Hg10 mi
3:00 PM70 °FSunny.7 mph38%30.07 "Hg10 mi
2:00 PM70 °FSunny.5 mph40%30.09 "Hg10 mi
1:00 PM68 °FSunny.8 mph43%30.12 "Hg10 mi
12:00 PM66 °FSunny.7 mph46%30.15 "Hg10 mi
11:00 AM61 °FSunny.6 mph63%30.15 "Hg10 mi
10:00 AM57 °FSunny.7 mph77%30.18 "Hg10 mi
9:00 AM54 °FSunny.7 mph88%30.18 "Hg10 mi
8:00 AM50 °FPassing clouds.3 mph88%30.18 "Hg4 mi
7:00 AM45 °FFog.5 mph100%30.18 "Hg2 mi
6:00 AM46 °FFog.7 mph93%30.18 "Hg3 mi
5:00 AM46 °FClear.2 mph93%30.15 "Hg4 mi
4:00 AM46 °FClear.3 mph100%30.18 "Hg4 mi
3:00 AM45 °FClear.No wind100%30.18 "Hg10 mi
Weather by CustomWeather, © 2014

See weather overviewHow to use our weather pages